Погода Ерофей Павлович

Погода Ерофей Павлович : погода сейчас, прогноз погоды и архив. Всё, что Вы хотите узнать о погоде Ерофей Павлович!

Хотите узнать прогноз погоды Ерофей Павлович? Тогда Вам сюда: Погода Ерофей Павлович

Поиск расширенной информации на нашем сайте:

Другие новости

Новости СМИ2

Главная страница сайта

Новости сайта

03.07.2017

Напоминаем, что на нашем специализированном сайте Метеоцентр.Азия вы можете получить высокодетализированные автоматические прогнозы погоды по пунктам России, СНГ и мира в авиационном формате (включающие направление и скорость ветра, видимость, явления погоды, количество и форму облачности, нижнюю и верхнюю границу облачности).

Рекомендуем: купить квартиру в Челябинске

Погода Ерофей Павлович - сегодня

Время (UTC), дата Ветер
(°,м/с) 
Видим.   Явления Облачность Т
(°С)
Тd
(°С)
f(%) Тe
(°С)
Pmin
(гПа)
dP
(гПа)
Po
(мм)
O2
(г/м3)
Тmin Tmax R s Состояние
почвы
03 18.07.17 320 (СЗ) 20000 м  {ливн. осадки}  8/8 600 м кучево-дожд. 
[Cb cap]
+21.1 +13.3 61 +29  997.4  -0.4  705  261           
06 18.07.17 320 (СЗ) 7-14{12}  20000 м  {ливн. осадки}  8/8 600 м кучево-дожд. 
[Cb cap]
+20.2 +10.7 54 +24  999.1  1.4  706  263           
09 18.07.17 330 (СЗ) 5{14}  20000 м    8/8 600 м кучево-дожд. 
[Cb cap]
+19.3 +10.3 56 +23  1001.1  1.7  707  264           
12 18.07.17 330 (СЗ) 3{10}  20000 м    9/3 1000 м средняя, верхняя 
[Sc diur, vesp|Ac lent|Ci]
+16.4 +9.2 62 +18  1003.5  1.7  708  267    +21.3  0.0     
15 18.07.17 300 (СЗ) н/о    9/0 средняя, верхняя 
[Ac lent|Ci]
+14.4 +9.3 71 +17  1004.4  0.4  708  269           
18 18.07.17 020 (С) н/о    5/3 1000 м верхняя 
[Sc|Ci]
+10.8 +8 83 +11  1005.3  0.1  709  273           
21 18.07.17 320 (СЗ) 20000 м    1/1 1000 м 
[Sc]
+12.8 +6.8 67 +13  1006  709  272           
00 19.07.17 320 (СЗ) 20000 м    1/1 600 м кучево-дожд. 
[Cb cap]
+16.5 +6.1 50 +17  1006  0.8  710  269  +10.6        мокрая 
03 19.07.17 330 (СЗ) 5{10}  20000 м    5/5 1000 м 
[Cu med, cong]
+20 +5.3 38 +20  1004.7  -0.6  709  265           
06 19.07.17 330 (СЗ) 4{10}  20000 м    8/8 1000 м 
[Cu med, cong]
+21.1 +4.3 33 +21  1003.8  -0.7  709  264           
09 19.07.17 320 (СЗ) 20000 м    3/3 1000 м 
[Sc diur, vesp]
+21.3 +3.3 31 +21  1003.6  -0.2  709  264           
12 19.07.17 340 (С) 20000 м    3/0 
+17.8 +4.3 41 +19  1004.8  0.4  709  267    +22.4       
15 19.07.17 340 (С) н/о    ясно 
+9.1 +6.2 82 +10  1007.9  1.2  710  276           
18 19.07.17 тихо ()   н/о    ясно 
+6.4 +4.5 88 +6  1009.1  0.6  710  279           
21 19.07.17 тихо ()   20000 м    ясно 
+5.9 +3.7 86 +6  1010  0.7  711  280           
00 20.07.17 330 (СЗ) 20000 м    3/0 верхняя 
[Ci sp]
+17.4 +8 54 +18  1007.5  0.1  711  268  +4.5        мокрая 
03 20.07.17 340 (С) 20000 м    9/8 600 м кучево-дожд., средняя 
[Cb cap|Ac As]
+20.5 +7.1 42 +21  1006.5  0.1  711  265           
06 20.07.17 020 (С) 20000 м    9/9 600 м кучево-дожд. 
[Cb cap]
+23 +4.9 31 +23  1005.3  -0.7  710  263           
09 20.07.17 270 (З) 20000 м  {ливн. осадки}  6/3 600 м кучево-дожд., средняя, верхняя 
[Cb cap|Ac lent|Ci fib]
+23.6 +5.3 31 +24  1005  -0.2  710  262           
12 20.07.17 тихо ()   20000 м  {ливн. осадки}  3/3 1000 м средняя 
[Sc diur, vesp|Ac lent]
+19.2 +10.7 58 +22  1006.5  0.7  711  266    +24.2  0.0     
15 20.07.17 010 (С) н/о    1/0 средняя 
[Ac lent]
+12 +9.5 85 +14  1009.8  1.6  712  273           
18 20.07.17 310 (СЗ) н/о    ясно 
+9.1 +7.3 88 +10  1010.6  0.2  712  276           
21 20.07.17 310 (СЗ) 20000 м    3/0 средняя 
[Ac As]
+9.4 +7.1 86 +10  1011.4  0.8  713  276           
00 21.07.17 220 (ЮЗ) 20000 м    1/0 средняя 
[Ac As]
+17.9 +9.9 59 +21  1009.7  0.2  713  268  +6.8        влажная 
03 21.07.17 230 (ЮЗ) 20000 м    3/3 1000 м 
[Cu hum]
+22.9 +8.2 39 +23  1008.3  -0.4  712  263           
Время (UTC), дата Ветер
(°,м/с) 
Видим.   Явления Облачность Т
(°С)
Тd
(°С)
f(%) Тe
(°С)
Pmin
(гПа)
dP
(гПа)
Po
(мм)
O2
(г/м3)
Тmin Tmax R s Состояние
почвы

Для получения пояснительной информации подведите курсор к названию столбца.

ПОГОДА Ерофей Павлович - архив

Всё, что Вы хотите узнать о погоде Ерофей Павлович - удобно и подробно!

Выберите нужную дату (начиная с 1 января 2015* года) и нажмите кнопку "Найти".
Будут отображены архивные сводки погоды по пункту Ерофей Павлович, начиная с указанной даты.


Отображать данные в формате CSV (для использования в таблицах Excel)


Внимание! Наш архив погоды предназначен исключительно для личного некоммерческого использования в познавательных целях. Если Вам необходимы официальные справки о состоянии погоды (для производственных, юридических, коммерческих и т.п. целей), обращайтесь в органы Росгидромета.

*Примечание: данная дата относится к архиву по метеостанциям СССР (Россия, СНГ, Балтия).
Архив по метеостанциям Зарубежной Европы и Азии (кроме Китая) хранится 10 дней, по другим регионам земного шара (Китай, Африка, Америка, Австралия, Океания) - 1 день.

Ерофей Павлович - район местоположения метеостанции


Название, широта, долгота, высота метеостанции:
Ерофей Павлович 54°ш. 121.9°д. 522 м над ур. моря [Российская Федерация]

Дополнительная информация

В oтличие oт бoльшинства пoгoдных сайтoв мы публикуем пoдрoбную метеoинфoрмацию в детальнoм прoфессиoнальнoм фoрмате.

Характеристики температуры и влажнoсти вoздуха измеряются на высoте 2 м в тени вдали oт зданий и деревьев.
Скoрoсть ветра измеряется на высoте 10 м (на урoвне рoста челoвека скoрoсть ветра ниже в 1.5-2 раза). Если метеoстанция нахoдится в гoрoде или в лесу, тo скoрoсть ветра занижена на 2-4 м/с пo сравнению с oткрытым местoм. Скoрoсть ветра над акватoриями крупных рек и oзёр, а также на вершинах хoлмoв на 2-5 м/с выше, чем в oбычных услoвиях.
Атмoсфернoе давление в разных тoчках местнoсти мoжет значительнo oтличаться oт давления на метеoстанции, в зависимoсти oт услoвий рельефа (при пoдъёме на 10 м давление пoнижается примернo на 1 мм рт.ст.).